[[{"header":{"parameterUnit":"m.s-1","parameterCategory":1,"la1":30.2991,"la2":30.254,"lo1":-89.0895,"lo2":-89.0444,"dy":0.0017,"dx":0.0017,"nx":28,"ny":28,"refTime":"2025-01-13T03:00:00:Z","depth":0,"parameterNumber":2,"parameterNumberName":"U-component_of_WINDS"},"data":[0,0,0,0,0,0,0,0,0,0,0,0,0,0,0,0,0,0,0,0,0,0,0,0,0,0,0,0,0,0,0,0,0,0,0,0,0,0,0,0,0,0,0,0,0,0,0,0,0,0,0,0,0,0,0,0,0,0,-1.5477,-1.5478,0,-1.5525,-1.5526,-1.5526,-1.5464,-1.5461,-1.5459,-1.5457,-1.5509,-1.5512,-1.5516,0,0,0,0,0,0,0,0,0,0,0,0,0,-1.5334,-1.5337,-1.5477,-1.5478,-1.5478,-1.5525,-1.5526,-1.5526,-1.5464,-1.5461,-1.5459,-1.5456,-1.5508,-1.5512,-1.5516,0,0,0,0,0,0,0,0,0,0,0,0,0,-1.539,-1.5338,-1.5477,-1.5453,-1.5451,-1.5525,-1.5526,-1.5527,-1.5465,-1.5461,-1.5458,-1.5455,-1.5506,-1.5511,-1.5517,-1.5617,0,0,-1.5533,-1.5535,0,0,0,0,0,0,0,0,-1.5387,-1.5396,-1.5456,-1.5455,-1.5453,-1.5485,-1.5494,-1.5557,-1.5466,-1.546,-1.5457,-1.5453,-1.5504,-1.5509,-1.5526,-1.562,-1.5622,-1.5533,-1.5536,-1.5538,-1.554,0,0,0,0,0,0,0,-1.5383,-1.5393,-1.5496,-1.5457,-1.5455,-1.544,-1.5445,-1.5506,-1.55,-1.546,-1.5455,-1.5462,-1.5502,-1.5521,-1.5526,-1.5623,-1.5533,-1.5538,-1.5541,-1.5543,-1.5802,-1.5806,0,0,0,0,0,0,-1.5382,-1.539,-1.5495,-1.5498,-1.5411,-1.5446,-1.545,-1.5478,-1.5499,-1.5499,-1.5465,-1.5459,-1.5513,-1.552,-1.5528,-1.5648,-1.5538,-1.5543,-1.5546,-1.5799,-1.5803,-1.5807,0,0,0,0,0,0,-1.5379,-1.5392,-1.5493,-1.5443,-1.5455,-1.5452,-1.5483,-1.5481,-1.5499,-1.5503,-1.5502,-1.5484,-1.5511,-1.5521,-1.5595,-1.5649,-1.5546,-1.555,-1.5794,-1.58,-1.5805,-1.589,0,0,0,0,0,0,-1.5375,-1.5391,-1.5429,-1.5444,-1.5457,-1.5559,-1.5487,-1.5484,-1.5508,-1.5501,-1.5521,-1.5521,-1.5509,-1.5588,-1.5601,-1.5655,-1.5555,-1.579,-1.5797,-1.5803,-1.5882,-1.5897,-1.5911,0,0,0,0,0,-1.537,-1.5451,-1.5431,-1.5444,-1.5505,-1.5563,-1.557,-1.5554,-1.5513,-1.5551,-1.5554,-1.5521,-1.5641,-1.5596,-1.561,-1.5666,-1.5786,-1.5795,-1.5803,-1.5876,-1.5894,-1.591,0,0,0,0,0,0,-1.5444,-1.5453,-1.5431,-1.5519,-1.554,-1.5552,-1.56,-1.5574,-1.5608,-1.56,-1.5578,-1.5583,-1.5664,-1.5672,-1.5622,-1.5765,-1.5707,-1.5718,-1.5757,-1.5775,-1.5789,-1.5787,-1.5559,0,0,0,0,0,-1.547,-1.5516,-1.5521,-1.5598,-1.561,-1.5603,-1.5628,-1.5613,-1.5635,-1.5644,-1.5652,-1.5675,-1.5717,-1.5746,-1.5786,-1.5882,-1.5886,-1.5927,-1.5942,-1.5953,-1.5965,-1.6017,-1.6036,-1.5835,-1.5835,-1.5835,0,0,-1.5525,-1.5536,-1.5566,-1.5613,-1.5628,-1.5677,-1.5612,-1.5665,-1.5702,-1.5652,-1.5724,-1.573,-1.5754,-1.5841,-1.5879,-1.585,-1.602,-1.5964,-1.5973,-1.5978,-1.6028,-1.6047,-1.6064,-1.5841,-1.584,-1.5839,0,0,-1.5651,-1.5663,-1.5729,-1.5745,-1.5768,-1.5763,-1.5779,-1.5794,-1.5796,-1.5867,-1.5831,-1.5874,-1.5948,-1.5967,-1.5986,-1.6118,-1.609,-1.6131,-1.6207,-1.6259,-1.6274,-1.6288,-1.6337,-1.6355,-1.6142,-1.6142,-1.6142,0,-1.5718,-1.5789,-1.5767,-1.5824,-1.5846,-1.5802,-1.5869,-1.5886,-1.5921,-1.5938,-1.5904,-1.5996,-1.6009,-1.61,-1.6132,-1.6148,-1.6167,-1.613,-1.6274,-1.6287,-1.63,-1.6347,-1.6365,-1.6147,-1.6146,-1.6146,-1.6145,0,-1.587,-1.592,-1.597,-1.6005,-1.6032,-1.6094,-1.6083,-1.6113,-1.6095,-1.6094,-1.6167,-1.6181,-1.6223,-1.6243,-1.6226,-1.6331,-1.6313,-1.6277,-1.6218,-1.6325,-1.6368,-1.6386,-1.6154,-1.6152,-1.6151,-1.615,0,0,-1.6046,-1.6066,-1.6086,-1.6101,-1.6122,-1.6161,-1.622,-1.6261,-1.6288,-1.6313,-1.6364,-1.6427,-1.6394,-1.6416,-1.64,-1.6445,-1.6551,-1.6404,-1.6404,-1.6433,-1.667,-1.6699,-1.672,-1.6531,-1.6534,-1.6537,-1.6669,0,-1.6174,-1.6277,-1.6259,-1.6359,-1.6406,-1.6364,-1.6416,-1.6435,-1.6435,-1.6475,-1.6474,-1.652,-1.6471,-1.6485,-1.6527,-1.6529,-1.6599,-1.6519,-1.658,-1.6582,-1.6578,-1.6742,-1.6773,-1.6897,-1.6685,-1.6688,-1.669,0,-1.6337,-1.6368,-1.6473,-1.6487,-1.6506,-1.6553,-1.6589,-1.6627,-1.6648,-1.6644,-1.6668,-1.6645,-1.6705,-1.6643,-1.6727,-1.6673,-1.6696,-1.6701,-1.6706,-1.6713,-1.6645,-1.6757,-1.6936,-1.6956,-1.6716,-1.6714,-1.6712,0,-1.6458,-1.6525,-1.6597,-1.6611,-1.6629,-1.6663,-1.6673,-1.669,-1.6715,-1.6746,-1.6762,-1.68,-1.6821,-1.6851,-1.6838,-1.6794,-1.6925,-1.6862,-1.6926,-1.6927,-1.6958,-1.6957,-1.7146,-1.6969,-1.6968,-1.6968,-1.6968,0,-1.6604,-1.6671,-1.6652,-1.6697,-1.677,-1.6748,-1.6822,-1.6825,-1.6841,-1.6886,-1.6851,-1.6895,-1.6874,-1.6916,-1.6906,-1.6978,-1.6987,-1.6987,-1.6985,-1.6992,-1.6993,-1.7009,-1.7002,-1.6973,-1.6972,-1.6971,-1.697,0,-1.6753,-1.6742,-1.6819,-1.6828,-1.6832,-1.6887,-1.6895,-1.6938,-1.6933,-1.6991,-1.7004,-1.6998,-1.7046,-1.7035,-1.7087,-1.7081,-1.7172,-1.7157,-1.7165,-1.7163,-1.7228,-1.7223,-1.7437,-1.7465,-1.7267,-1.7269,-1.727,0,-1.6848,-1.6899,-1.6914,-1.6941,-1.6953,-1.6997,-1.7023,-1.7002,-1.703,-1.7057,-1.7097,-1.7141,-1.7175,-1.7254,-1.7255,-1.7295,-1.7282,-1.7354,-1.7288,-1.7295,-1.7286,-1.7285,-1.729,-1.7369,-1.7371,-1.7373,-1.7374,0,-1.702,-1.7012,-1.7049,-1.7086,-1.7117,-1.7144,-1.7169,-1.7193,-1.7174,-1.7208,-1.7256,-1.7282,-1.7335,-1.738,-1.7417,-1.7427,-1.7399,-1.7394,-1.7412,-1.7422,-1.7425,-1.7427,-1.7204,-1.739,-1.7389,-1.7388,-1.7387,-1.7386,-1.7146,-1.7189,-1.7207,-1.725,-1.7266,-1.7289,-1.733,-1.733,-1.7369,-1.7411,-1.7396,-1.7451,-1.747,-1.7516,-1.7531,-1.7574,-1.7547,-1.7572,-1.7578,-1.7585,-1.7595,-1.7416,-1.758,-1.758,-1.7579,-1.7579,-1.7578,0,-1.7318,-1.7326,-1.7366,-1.7401,-1.7435,-1.7403,-1.7428,-1.7459,-1.7508,-1.7528,-1.7562,-1.7618,-1.7661,-1.7665,-1.7706,-1.774,-1.7728,-1.7751,-1.775,-1.7753,-1.7615,-1.7597,-1.776,-1.776,-1.776,-1.776,-1.776,-1.776,-1.7411,-1.7483,-1.7477,-1.7556,-1.7564,-1.7618,-1.7635,-1.7657,-1.7673,-1.7736,-1.7771,-1.7773,-1.7787,-1.7828,-1.7866,-1.7866,-1.7884,-1.7914,-1.7909,-1.7781,-1.7763,-1.7746,-1.7729,-1.7917,-1.7917,-1.8044,-1.8045,-1.8046]},{"header":{"parameterUnit":"m.s-1","parameterCategory":1,"la1":30.2991,"la2":30.254,"lo1":-89.0895,"lo2":-89.0444,"dy":0.0017,"dx":0.0017,"nx":28,"ny":28,"refTime":"2025-01-13T03:00:00:Z","depth":0,"parameterNumber":3,"parameterNumberName":"V-component_of_WINDS"},"data":[0,0,0,0,0,0,0,0,0,0,0,0,0,0,0,0,0,0,0,0,0,0,0,0,0,0,0,0,0,0,0,0,0,0,0,0,0,0,0,0,0,0,0,0,0,0,0,0,0,0,0,0,0,0,0,0,0,0,-4.9412,-4.9412,0,-4.947,-4.947,-4.9471,-4.9374,-4.9371,-4.9367,-4.9364,-4.9421,-4.9425,-4.943,0,0,0,0,0,0,0,0,0,0,0,0,0,-4.9214,-4.9218,-4.9412,-4.9413,-4.9413,-4.947,-4.9471,-4.9471,-4.9374,-4.937,-4.9366,-4.9363,-4.9419,-4.9425,-4.943,0,0,0,0,0,0,0,0,0,0,0,0,0,-4.9288,-4.9219,-4.9412,-4.9372,-4.9369,-4.947,-4.9471,-4.9471,-4.9375,-4.937,-4.9365,-4.9361,-4.9417,-4.9424,-4.9431,-4.9572,0,0,-4.9452,-4.9455,0,0,0,0,0,0,0,0,-4.9284,-4.9296,-4.9377,-4.9375,-4.9372,-4.941,-4.9421,-4.9505,-4.9376,-4.9373,-4.9364,-4.9358,-4.9421,-4.9427,-4.9449,-4.9575,-4.9577,-4.9452,-4.9457,-4.946,-4.9461,0,0,0,0,0,0,0,-4.9279,-4.9293,-4.9435,-4.9378,-4.9375,-4.935,-4.9355,-4.9437,-4.9424,-4.9373,-4.9366,-4.9374,-4.9418,-4.9442,-4.9449,-4.9578,-4.9452,-4.9458,-4.9463,-4.9465,-4.9823,-4.9828,0,0,0,0,0,0,-4.9279,-4.9289,-4.9433,-4.9436,-4.9315,-4.9357,-4.9363,-4.9402,-4.9423,-4.9421,-4.9378,-4.9369,-4.9433,-4.9441,-4.9451,-4.9618,-4.9459,-4.9466,-4.947,-4.9817,-4.9824,-4.983,0,0,0,0,0,0,-4.9276,-4.9293,-4.943,-4.9361,-4.9376,-4.9366,-4.9411,-4.9406,-4.943,-4.9427,-4.9424,-4.9406,-4.9429,-4.9441,-4.9543,-4.9619,-4.9469,-4.9475,-4.9811,-4.9819,-4.9827,-4.9954,0,0,0,0,0,0,-4.927,-4.9292,-4.9347,-4.9363,-4.9381,-4.9523,-4.9415,-4.9411,-4.9442,-4.9431,-4.9452,-4.945,-4.9426,-4.9533,-4.955,-4.9625,-4.9481,-4.9804,-4.9815,-4.9824,-4.9943,-4.9965,-4.9984,0,0,0,0,0,-4.9264,-4.938,-4.935,-4.9368,-4.9449,-4.9528,-4.9538,-4.9509,-4.9449,-4.9503,-4.9501,-4.9449,-4.9607,-4.9544,-4.9562,-4.9641,-4.9799,-4.9812,-4.9823,-4.9933,-4.9961,-4.9984,0,0,0,0,0,0,-4.9372,-4.9381,-4.9349,-4.9474,-4.9501,-4.9511,-4.9579,-4.9539,-4.9583,-4.957,-4.9532,-4.9537,-4.9647,-4.9653,-4.9583,-4.9779,-4.9693,-4.9709,-4.9771,-4.9796,-4.9817,-4.9813,-4.9486,0,0,0,0,0,-4.9411,-4.9475,-4.9479,-4.9589,-4.9604,-4.959,-4.9623,-4.9598,-4.9624,-4.9635,-4.964,-4.9667,-4.9722,-4.9759,-4.981,-4.9943,-4.9945,-5.0005,-5.0026,-5.0043,-5.0058,-5.0128,-5.0155,-4.9869,-4.9869,-4.9869,0,0,-4.9491,-4.9504,-4.9547,-4.9611,-4.9629,-4.9696,-4.96,-4.9674,-4.9723,-4.9646,-4.9743,-4.9747,-4.9774,-4.9892,-4.9944,-4.9901,-5.0137,-5.0059,-5.0072,-5.0078,-5.0144,-5.0171,-5.0195,-4.9878,-4.9876,-4.9875,0,0,-4.9672,-4.9688,-4.9782,-4.9802,-4.9831,-4.982,-4.9842,-4.9859,-4.9859,-4.9956,-4.99,-4.9956,-5.0052,-5.0074,-5.0097,-5.0285,-5.024,-5.0303,-5.0412,-5.0481,-5.0503,-5.0523,-5.059,-5.0615,-5.0317,-5.0318,-5.0318,0,-4.9768,-4.9867,-4.9834,-4.9913,-4.9943,-4.9877,-4.9971,-4.9991,-5.0035,-5.0057,-5.0008,-5.0127,-5.0141,-5.0263,-5.0309,-5.033,-5.0354,-5.0301,-5.0503,-5.0522,-5.054,-5.0604,-5.0629,-5.0325,-5.0324,-5.0324,-5.0323,0,-4.9983,-5.0053,-5.0125,-5.017,-5.0207,-5.0293,-5.0273,-5.0314,-5.0286,-5.028,-5.0379,-5.0393,-5.0445,-5.0472,-5.0445,-5.059,-5.0563,-5.0509,-5.0423,-5.0576,-5.0635,-5.0659,-5.0336,-5.0333,-5.0331,-5.0329,0,0,-5.0235,-5.0261,-5.0288,-5.0308,-5.0334,-5.0387,-5.0469,-5.0521,-5.0558,-5.059,-5.0657,-5.074,-5.0691,-5.0718,-5.0692,-5.0753,-5.0901,-5.0691,-5.0691,-5.073,-5.1062,-5.1103,-5.1132,-5.087,-5.0875,-5.0878,-5.106,0,-5.0415,-5.0559,-5.0532,-5.0671,-5.0735,-5.0672,-5.0744,-5.0767,-5.0764,-5.0816,-5.0811,-5.0871,-5.0801,-5.0817,-5.0874,-5.0871,-5.0967,-5.0857,-5.0932,-5.0936,-5.0929,-5.1162,-5.1206,-5.1377,-5.1083,-5.1086,-5.1089,0,-5.0645,-5.0687,-5.0833,-5.085,-5.0875,-5.094,-5.0986,-5.1037,-5.1062,-5.1054,-5.1085,-5.1048,-5.1128,-5.104,-5.115,-5.1076,-5.1105,-5.1108,-5.1114,-5.112,-5.1023,-5.1176,-5.143,-5.1456,-5.1125,-5.1123,-5.112,0,-5.0815,-5.0907,-5.1007,-5.1025,-5.1047,-5.1094,-5.1105,-5.1125,-5.1158,-5.1197,-5.1218,-5.1265,-5.1292,-5.1329,-5.1305,-5.1243,-5.142,-5.1329,-5.1416,-5.1417,-5.1457,-5.1455,-5.172,-5.1474,-5.1474,-5.1473,-5.1473,0,-5.1019,-5.1111,-5.1083,-5.1145,-5.1246,-5.1213,-5.1313,-5.1316,-5.1335,-5.1395,-5.1343,-5.14,-5.1365,-5.1419,-5.14,-5.1495,-5.1506,-5.1503,-5.1497,-5.1508,-5.1509,-5.1527,-5.1515,-5.148,-5.1478,-5.1477,-5.1476,0,-5.1226,-5.1211,-5.1316,-5.1328,-5.1333,-5.1407,-5.1416,-5.1473,-5.1465,-5.1542,-5.1558,-5.1545,-5.1606,-5.1586,-5.1651,-5.1638,-5.1758,-5.1737,-5.1751,-5.1746,-5.1833,-5.1826,-5.2121,-5.2158,-5.1887,-5.189,-5.1892,0,-5.1359,-5.1428,-5.1448,-5.1485,-5.15,-5.156,-5.1594,-5.1563,-5.16,-5.1633,-5.1686,-5.1743,-5.1786,-5.1886,-5.1882,-5.1931,-5.1911,-5.2011,-5.1918,-5.1927,-5.1913,-5.191,-5.1917,-5.203,-5.2033,-5.2035,-5.2038,0,-5.1595,-5.1584,-5.1635,-5.1684,-5.1726,-5.1763,-5.1794,-5.1827,-5.1798,-5.1842,-5.1905,-5.1939,-5.2005,-5.2062,-5.2106,-5.2116,-5.2073,-5.2067,-5.2089,-5.2102,-5.2108,-5.2106,-5.1802,-5.206,-5.2058,-5.2056,-5.2055,-5.2054,-5.1769,-5.1828,-5.1851,-5.191,-5.193,-5.1961,-5.2015,-5.2014,-5.2066,-5.2119,-5.2097,-5.2169,-5.2191,-5.2246,-5.2262,-5.2316,-5.2278,-5.2311,-5.2319,-5.2328,-5.234,-5.2098,-5.2324,-5.2324,-5.2323,-5.2322,-5.2322,0,-5.2003,-5.2015,-5.2069,-5.2116,-5.2162,-5.2117,-5.215,-5.2191,-5.2255,-5.228,-5.2324,-5.2395,-5.245,-5.245,-5.25,-5.2544,-5.2525,-5.2558,-5.2555,-5.2558,-5.2371,-5.2347,-5.2573,-5.2573,-5.2573,-5.2573,-5.2573,-5.2573,-5.213,-5.2228,-5.222,-5.2327,-5.2337,-5.2408,-5.2431,-5.2459,-5.2478,-5.2561,-5.2606,-5.2606,-5.2621,-5.2671,-5.2719,-5.2717,-5.2739,-5.278,-5.2771,-5.2596,-5.2571,-5.2548,-5.2525,-5.2784,-5.2785,-5.2954,-5.2955,-5.2956]}]]